Cygnus — 9HA2105 — position and weather

sailwx.info

Track history (hours):
 
Tides and Currents Weather Stations Pressure Air Temp Water Temp Dewpoint Dewpoint Depression Visibility Wind Speed Wind Dir Waves Ship Positions

Cygnus

Last reported at 2014-Jul-28 18:23 UTC. Time now 2014-Jul-29 12:45 UTC.
Position N 31°14' E 029°44'.

Length 177 m; draft 10.1 m.

Type: Cargo ship. MMSI: 249963000.

Date/timePositionNaut miles runAvg speedWind from/ knotsBaromVisibWave heightAir tempDewpointWater temp
2014-Jul-28 18:23N 31°14' E 029°44'  
2014-Jul-24 09:05N 31°14' E 029°44'0 0.0
2014-Jul-24 08:23N 31°14' E 029°44'  
2014-Jul-21 01:32N 36°04' E 015°06'1513.5
2014-Jul-21 00:27N 36°09' E 014°49'1213.6
2014-Jul-20 23:33N 36°14' E 014°35'1313.4
2014-Jul-20 22:33N 36°19' E 014°20'1313.2
2014-Jul-20 21:33N 36°23' E 014°05'1313.4
2014-Jul-20 20:33N 36°29' E 013°49'1313.3
2014-Jul-20 19:33N 36°33' E 013°34'1313.3
2014-Jul-20 18:33N 36°38' E 013°18'1313.4
2014-Jul-20 17:33N 36°43' E 013°03'1414.2
2014-Jul-20 16:33N 36°48' E 012°47'1414.0
2014-Jul-20 15:33N 36°53' E 012°30'1313.4
2014-Jul-20 14:33N 36°59' E 012°15'25612.8
2014-Jul-19 18:31N 38°48' E 007°21'2412.1
2014-Jul-19 16:32N 39°00' E 006°55'1212.4
2014-Jul-19 15:33N 39°07' E 006°42'3012.6
2014-Jul-19 13:10N 39°22' E 006°08'1911.8
2014-Jul-19 11:33N 39°31' E 005°47'1311.9
2014-Jul-19 10:30N 39°38' E 005°33'1212.2
2014-Jul-19 09:33N 39°44' E 005°20'1312.3
2014-Jul-19 08:28N 39°50' E 005°05'1512.5
2014-Jul-19 07:14N 39°58' E 004°48'1412.3
2014-Jul-19 06:06N 40°05' E 004°32'1012.1
2014-Jul-19 05:15N 40°11' E 004°20'811.7
2014-Jul-19 04:33N 40°15' E 004°11'1612.1
2014-Jul-19 03:11N 40°25' E 003°54'813.0
2014-Jul-19 02:33N 40°29' E 003°45'1814.5
2014-Jul-19 01:20N 40°39' E 003°25'8 9.9
2014-Jul-19 00:33N 40°43' E 003°17'1312.7
2014-Jul-18 23:33N 40°50' E 003°03'1312.9
2014-Jul-18 22:33N 40°57' E 002°49'1312.8
2014-Jul-18 21:32N 41°05' E 002°34'1212.6
2014-Jul-18 20:33N 41°12' E 002°21'  
Track history (hours):
 
Tides and Currents Weather Stations Pressure Air Temp Water Temp Dewpoint Dewpoint Depression Visibility Wind Speed Wind Dir Waves Ship Positions

Cygnus

Last reported at 2014-Jul-28 18:23 UTC. Time now 2014-Jul-29 12:45 UTC.
Position N 31°14' E 029°44'.

Length 177 m; draft 10.1 m.

Type: Cargo ship. MMSI: 249963000.

Date/timePositionNaut miles runAvg speedWind from/ knotsBaromVisibWave heightAir tempDewpointWater temp
2014-Jul-28 18:23N 31°14' E 029°44'  
2014-Jul-24 09:05N 31°14' E 029°44'0 0.0
2014-Jul-24 08:23N 31°14' E 029°44'  
2014-Jul-21 01:32N 36°04' E 015°06'1513.5
2014-Jul-21 00:27N 36°09' E 014°49'1213.6
2014-Jul-20 23:33N 36°14' E 014°35'1313.4
2014-Jul-20 22:33N 36°19' E 014°20'1313.2
2014-Jul-20 21:33N 36°23' E 014°05'1313.4
2014-Jul-20 20:33N 36°29' E 013°49'1313.3
2014-Jul-20 19:33N 36°33' E 013°34'1313.3
2014-Jul-20 18:33N 36°38' E 013°18'1313.4
2014-Jul-20 17:33N 36°43' E 013°03'1414.2
2014-Jul-20 16:33N 36°48' E 012°47'1414.0
2014-Jul-20 15:33N 36°53' E 012°30'1313.4
2014-Jul-20 14:33N 36°59' E 012°15'25612.8
2014-Jul-19 18:31N 38°48' E 007°21'2412.1
2014-Jul-19 16:32N 39°00' E 006°55'1212.4
2014-Jul-19 15:33N 39°07' E 006°42'3012.6
2014-Jul-19 13:10N 39°22' E 006°08'1911.8
2014-Jul-19 11:33N 39°31' E 005°47'1311.9
2014-Jul-19 10:30N 39°38' E 005°33'1212.2
2014-Jul-19 09:33N 39°44' E 005°20'1312.3
2014-Jul-19 08:28N 39°50' E 005°05'1512.5
2014-Jul-19 07:14N 39°58' E 004°48'1412.3
2014-Jul-19 06:06N 40°05' E 004°32'1012.1
2014-Jul-19 05:15N 40°11' E 004°20'811.7
2014-Jul-19 04:33N 40°15' E 004°11'1612.1
2014-Jul-19 03:11N 40°25' E 003°54'813.0
2014-Jul-19 02:33N 40°29' E 003°45'1814.5
2014-Jul-19 01:20N 40°39' E 003°25'8 9.9
2014-Jul-19 00:33N 40°43' E 003°17'1312.7
2014-Jul-18 23:33N 40°50' E 003°03'1312.9
2014-Jul-18 22:33N 40°57' E 002°49'1312.8
2014-Jul-18 21:32N 41°05' E 002°34'1212.6
2014-Jul-18 20:33N 41°12' E 002°21'  

Dump ship's entire track history